[Iaude] MPEC Y32: 2023 YE [a=2.04,e=0.52,i=4.7,H=24.4]

mpec at marsden.cfa.harvard.edu mpec at marsden.cfa.harvard.edu
Sun Dec 17 18:28:07 EST 2023


M.P.E.C. 2023-Y32                             Issued 2023 December 17, 23:26 UT

     The Minor Planet Electronic Circulars contain information on unusual
         minor planets, routine data on comets and natural satellites,
         and occasional editorial announcements.  They are published
    on behalf of Division F of the International Astronomical Union by the
          Minor Planet Center, Smithsonian Astrophysical Observatory,
                          Cambridge, MA 02138, U.S.A.
			  
             Prepared using the Tamkin Foundation Computer Network

                              MPC at CFA.HARVARD.EDU
            URL https://www.minorplanetcenter.net/    ISSN 1523-6714

                                    2023 YE                                     


Observations:
     K23Y00E*1C2023 12 16.34391607 38 27.150+17 56 21.23         20.28GVEY032G96
     K23Y00E 1C2023 12 16.34903507 38 30.966+17 56 30.26         20.48GVEY032G96
     K23Y00E 1C2023 12 16.35929707 38 38.584+17 56 48.55         20.59GVEY032G96
     K23Y00E  C2023 12 16.38199707 38 55.179+17 57 25.47         20.0 GVEY032H01
     K23Y00E  C2023 12 16.38593607 38 58.119+17 57 32.23         20.2 GVEY032H01
     K23Y00E  C2023 12 16.39743607 39 06.720+17 57 51.88         19.8 GVEY032H01
     K23Y00E  C2023 12 16.40586007 39 13.027+17 58 06.21         20.5 GVEY032H01
     K23Y00E mC2023 12 16.45008407 39 46.590+17 59 23.10               VEY032I52
     K23Y00E mC2023 12 16.45056607 39 46.990+17 59 24.00               VEY032I52
     K23Y00E mC2023 12 16.45104907 39 47.330+17 59 25.60               VEY032I52
     K23Y00E mC2023 12 16.45153107 39 47.670+17 59 25.70         20.99GVEY032I52
     K23Y00E KB2023 12 16.85314 07 45 17.32 +18 10 14.7          19.2 RZEY032106
     K23Y00E KB2023 12 16.85880 07 45 21.81 +18 10 26.1          19.2 RZEY032106
     K23Y00E KB2023 12 16.86446 07 45 26.45 +18 10 36.7          19.0 RZEY032106
     K23Y00E KB2023 12 16.87031 07 45 31.09 +18 10 46.4          19.1 RZEY032106
     K23Y00E KB2023 12 16.99284807 47 10.23 +18 14 26.6          20.1 GXEY032958
     K23Y00E KB2023 12 16.99813607 47 14.34 +18 14 35.6          19.7 GXEY032958
     K23Y00E KB2023 12 17.00355207 47 18.67 +18 14 45.6          19.8 GXEY032958
     K23Y00E KC2023 12 17.08096307 48 18.77 +18 16 56.7          20.2 GVEY032L01
     K23Y00E KC2023 12 17.08293907 48 20.39 +18 16 59.8          20.1 GVEY032L01
     K23Y00E KC2023 12 17.08491507 48 21.95 +18 17 02.7          20.2 GVEY032L01
     K23Y00E KC2023 12 17.08664407 48 23.33 +18 17 05.4          20.2 GVEY032L01
     K23Y00E  C2023 12 17.33530907 51 56.137+18 24 16.96         20.3 GVEY032654
     K23Y00E  C2023 12 17.33941807 51 59.468+18 24 23.98         20.3 GVEY032654
     K23Y00E KC2023 12 17.94534 08 00 45.05 +18 40 31.2          20.3 GVEY032104
     K23Y00E KC2023 12 17.95665 08 00 54.79 +18 40 50.1                VEY032104

Observer details:
104 San Marcello Pistoiese.  Observers P. Bacci, M. Maestripieri.  Measurer P.
    Bacci.  0.60-m f/4.0 reflector + CCD.
106 Crni Vrh.  Observer H. Mikuz.  0.60-m f/3.3 reflector + CMO.
654 Table Mountain Observatory, Wrightwood-PHMC.  Observers N. Evans, P. Choi,
    N. Saini, C. Zhai, R. Trahan, M. Shao.  1.0-m Reflector + CCD.
958 Observatoire de Dax.  Observer P. Dupouy.  0.50-m f/4.5 Reflector + CMO.
G96 Mt. Lemmon Survey.  Observer A. R. Gibbs.  Measurers E. C. Beshore, D.
    Fay, J. B. Fazekas, D. C. Fuls, A. R. Gibbs, A. D. Grauer, H. Groeller, J.
    K. Hogan, R. A. Kowalski, S. M. Larson, G. J. Leonard, D. Rankin, R. L.
    Seaman, F. C. Shelly, K. W. Wierzchos.  1.5-m reflector + 10K CCD.
H01 Magdalena Ridge Observatory, Socorro.  Observers W. H. Ryan, E. V. Ryan.
    Measurer W. H. Ryan.  2.4-m f/8.9 Ritchey-Chretien + CCD.
I52 Steward Observatory, Mt. Lemmon Station.  Observer K. W. Wierzchos.
    Measurers E. C. Beshore, D. Fay, J. B. Fazekas, D. C. Fuls, A. R. Gibbs,
    A. D. Grauer, H. Groeller, J. K. Hogan, R. A. Kowalski, S. M. Larson, G.
    J. Leonard, D. Rankin, R. L. Seaman, F. C. Shelly, K. W. Wierzchos.  1.0-m
    prime focus + CCD.
L01 Visnjan Observatory, Tican.  Observer K. Korlevic.  1.0-m f/2.9 reflector
    + CCD.

Orbital elements:
2023 YE                                                  Earth MOID = 0.0283 AU
Epoch 2023 Sept. 13.0 TT = JDT 2460200.5                MPC                     
M 317.74073              (2000.0)            P               Q                  
n   0.33738839     Peri.   33.07701     -0.53566823     -0.84046985             
a   2.0435376      Node    89.43602     +0.75593704     -0.52038699             
e   0.5171060      Incl.    4.68478     +0.37632265     -0.15102253             
P   2.92           H   24.42          G   0.15           U   8                  
Residuals in seconds of arc
231216 G96  0.2+  0.2-    231216 I52  0.0   0.6+    231217 L01  0.5-  0.8+
231216 G96  0.1+  0.2-    231216 I52  0.3-  0.1-    231217 L01  0.1+  0.6+
231216 G96  0.5-  0.0     231216 106  0.0   0.6-    231217 L01  0.1-  0.2+
231216 H01  0.1+  0.0     231216 106  0.9-  0.5+    231217 L01  0.1-  0.1+
231216 H01  0.0   0.0     231216 106  0.4+  0.7+    231217 654  0.1+  0.2-
231216 H01  0.0   0.0     231216 106  0.4-  0.2-    231217 654  0.0   0.3-
231216 H01  0.1-  0.0     231216 958  1.7+  0.3+    231217 104  0.1-  0.2-
231216 I52  0.2-  0.3-    231216 958  0.2+  0.1-    231217 104  0.2+  0.5-
231216 I52  0.3+  0.2-    231217 958  0.5+  0.4+

Ephemeris:
2023 YE                  a,e,i = 2.04, 0.52, 5                   q = 0.9868
Date    TT    R. A. (2000) Decl.     Delta      r    Elong.  Phase     V
2023 11 17    05 05 20.4 +10 59 59   0.2520  1.2218   155.0    20.0    22.9
...
2023 12 02    05 48 11.0 +12 39 59   0.1524  1.1298   159.2    18.0    21.5
...
2023 12 10    06 34 00.7 +15 03 56   0.1097  1.0872   157.6    20.2    20.8
...
2023 12 16    07 33 58.9 +17 46 53   0.08478 1.0591   150.8    26.9    20.4
2023 12 17    07 47 12.2 +18 15 28   0.08147 1.0548   148.9    28.8    20.4
2023 12 18    08 01 29.0 +18 42 52   0.07845 1.0506   146.8    30.9    20.3
...
2023 12 24    09 46 51.6 +20 03 59   0.06803 1.0279   129.1    48.0    20.4
...
2024 01 01    12 07 13.9 +16 06 39   0.07684 1.0048   104.1    71.7    21.4
...
2024 01 16    14 10 27.2 +07 47 02   0.1297  0.9867    87.6    84.9    22.9

A. U. Tomatic                (C) Copyright 2023 MPC           M.P.E.C. 2023-Y32





More information about the Iaude mailing list